Regional Weather Roundup
Issued by NWS

Home | Current Version | Previous Version | Graphics & Text | Print | Product List | Glossary On
Versions: 1 2 3 4 5 6 7 8 9 10 11 12 13 14 15 16 17 18 19 20 21 22 23 24 25 26 27 28 29 30 31 32 33 34 35 36 37 38 39 40 41 42 43 44 45 46 47 48 49 50
000
ASUS43 KMKX 020911
RWRWI

WISCONSIN REGIONAL WEATHER ROUNDUP
NATIONAL WEATHER SERVICE MILWAUKEE/SULLIVAN WI
400 AM CDT SUN AUG 02 2015

NOTE: "FAIR" INDICATES FEW OR NO CLOUDS BELOW 12,000 FEET WITH NO
SIGNIFICANT WEATHER AND/OR OBSTRUCTIONS TO VISIBILITY.

WIZ001-002-006>008-014>016-023>028-021000-
NORTHWEST WISCONSIN

CITY           SKY/WX    TMP DP  RH WIND       PRES   REMARKS
SUPERIOR ARPT  MOCLDY    62  60  93 SW3       29.66S
ASHLAND        MOCLDY    65  63  93 W6        29.67R
HAYWARD        CLEAR     67  63  87 S5        29.68F
SIREN          CLEAR     72  63  73 SW10G16   29.66F
CUMBERLAND     CLEAR     64  63  94 S5        29.69F
RICE LAKE      CLEAR     66  63  89 CALM      29.71F
CHETEK         CLEAR     68  65  90 SW5       29.70F
LADYSMITH      CLEAR     67  64  89 SW5       29.72F
EAU CLAIRE     PTCLDY    70  66  87 SW7       29.71F
MENOMONIE      CLEAR     70  64  83 SW3       29.72S
NEW RICHMOND   CLEAR     68  66  92 S6        29.70F
OSCEOLA        CLEAR     72  65  78 S7        29.71F
$$

WIZ003>005-009-010-017-018-021000-
NORTH CENTRAL WISCONSIN

CITY           SKY/WX    TMP DP  RH WIND       PRES   REMARKS
MANITOWISH WTR PTCLDY    62  62 100 CALM      29.71S
ARBOR VITAE    PTCLDY    63  61  92 S7        29.71F
WOODRUFF       PTCLDY    63  61  92 S7        29.71F
RHINELANDER    PTCLDY    68  61  78 SW10      29.75F
EAGLE RIVER    PTCLDY    62  56  82 SW3       29.72F
LAND O LAKES   PTCLDY    56  55  96 CALM      29.73F
PHILLIPS       CLEAR     64  62  95 SW3       29.71F
TOMAHAWK       PTCLDY    62  59  91 CALM      29.74F
MEDFORD        PTCLDY    67  65  91 SW9       29.74F
MERRILL        NOT AVBL
$$

WIZ029-030-035-036-043>047-021000-
CENTRAL WISCONSIN

CITY           SKY/WX    TMP DP  RH WIND       PRES   REMARKS
WAUSAU         MOCLDY    65  64  97 E3        29.74F THUNDER
MOSINEE        MOCLDY    64  63  94 S3        29.77F THUNDER
MARSHFIELD     MOCLDY    67  62  84 SW7       29.76F
STEVENS POINT  MOCLDY    65  62  87 S3        29.77F
WAUPACA        CLOUDY    67  64  87 CALM      29.77F
WAUTOMA        MOCLDY    60  58  93 CALM      29.79S
WISC RAPIDS    MOCLDY    70  64  81 SW5       29.78F
CAMP DOUGLAS   PTCLDY    72  72 100 SW5       29.76F
$$

WIZ011>013-019>022-031-037>040-048>050-021000-
NORTHEAST WISCONSIN

CITY           SKY/WX    TMP DP  RH WIND       PRES   REMARKS
ANTIGO         MOCLDY    60  59  97 S5        29.76F
SHAWANO        CLOUDY    67  61  82 SW3       29.75F THUNDER
OCONTO         CLOUDY    64  63  95 SW10      29.74S
STURGEON BAY   CLOUDY    68  57  68 SW12      29.76F
GREEN BAY      CLOUDY    68  62  81 SW6       29.76F
MANITOWOC      CLOUDY    71  62  73 MISG      29.78F
APPLETON       CLOUDY    70  61  73 SW6       29.78F
CLINTONVILLE   CLOUDY    68  59  73 N6        29.76F
OSHKOSH        CLOUDY    67  61  81 SW5       29.78S
$$

WIZ032>034-041-042-053>061-021000-
SOUTHWEST WISCONSIN

CITY           SKY/WX    TMP DP  RH WIND       PRES   REMARKS
LA CROSSE      CLEAR     74  69  85 S6        29.75F
SPARTA         PTCLDY    71  67  87 S5        29.77F
VIROQUA        CLEAR     71  70  96 SW7       29.80F
BOSCOBEL       PTCLDY    74  69  85 SW7       29.79F
PRAIRIE DU CHI PTCLDY    73  67  82 SW6       29.79F
PLATTEVILLE    CLEAR     69  68  97 S7        29.83F
$$

WIZ056-057-062-063-064-067-068-021000-
SOUTH CENTRAL WISCONSIN

CITY           SKY/WX    TMP DP  RH WIND       PRES   REMARKS
REEDSBURG      PTCLDY    73  68  85 SW5       29.79R
BARABOO/DELLS  PTCLDY    73  65  77 W5        29.80R
LONE ROCK      PTCLDY    72  68  87 VRB3      29.80F
MINERAL POINT  PTCLDY    70  68  94 SW5       29.83F
MADISON        PTCLDY    75  67  76 SW7       29.80F
MIDDLETON      PTCLDY    74  67  79 SW10G17   29.81F
WATERTOWN      MOCLDY    69  69 100 S6        29.81F
MONROE         CLEAR     70  66  88 SW13      29.83F
JANESVILLE     PTCLDY    70  68  94 S5        29.84S
$$

WIZ051-052-058>065-066-070>072-021000-
SOUTHEAST WISCONSIN

CITY           SKY/WX    TMP DP  RH WIND       PRES   REMARKS
MILWAUKEE      PTCLDY    71  65  81 SW9       29.81F
WAUKESHA       PTCLDY    68  63  83 SW6       29.83F
MILWAUKEE/TIMM PTCLDY    68  63  83 SW5       29.82F
RACINE         PTCLDY    71  64  78 SW8       29.84F
BURLINGTON     MOCLDY    67  65  93 SW5       29.84F
KENOSHA        PTCLDY    71  65  81 SW8       29.84F
FOND DU LAC    CLOUDY    68  64  87 S6        29.80S
SHEBOYGAN      MOCLDY    70  65  84 W8        29.80S
WEST BEND      PTCLDY    72  64  78 W10       29.81F
JUNEAU         MOCLDY    69  67  93 S8        29.82F
$$

LSZ147-162-021000-
LAKE SUPERIOR

STATION/POSITION TIME  TEMP    WIND        PRES    WAVE
                       AIR SEA DIR/SP/G            HT/PER
                 (UTC) (F)     (DEG/KT/KT) (MB)    (FT/S)
W MID LAKE BUOY  0850   60 55  230/ 10/ 12 1003.3F   1/ 3
DEVILS ISLAND    0900   63     260/ 13/ 15 1004.2R
PORT WING        0800   66      CALM  /  1 1004.1F
SAXON HARBOR     0840   70                 1003.4F
$$

LMZ867-665-643>646-021000-
LAKE MICHIGAN

STATION/POSITION TIME  TEMP    WIND        PRES    WAVE
                       AIR SEA DIR/SP/G            HT/PER
                 (UTC) (F)     (DEG/KT/KT) (MB)    (FT/S)
CHAMBERS ISLAND  0800   70     180/  5/  9 1007.1F
S GREEN BAY BUOY 0800   71 69  190/ 12/ 14 1008.9F
N MID LAKE BUOY  0850   70 68  210/ 14/ 17 1006.1F   2/ 4
NORTHPORT PIER   0800   66     170/  3/  6 1007.1F
SISTER BAY       0645   69     190/  6/  8   N/A
ALGOMA LAKESHORE 0827             CALM       N/A
KEWAUNEE LAKESHO 0800   65     250/  1/  2 1007.9F
SHEBOYGAN LAKESH 0900   71     250/ 10/ 11 1008.9S
PORT WASHINGTON  0800   72     260/  9/ 13 1010.2F
ATWATER BUOY     0900   70 59  230/ 10/ 12 1010.7F
MILWAUKEE LAKESH 0800   72     240/ 11/ 13   N/A
KENOSHA   LAKESH 0900   74     240/ 10/ 14 1010.2F
$$

TC  - TEMPERATURE IN CELSIUS
VSB - VISIBILITY IN STATUTE MILES
WCI - WIND CHILL INDEX
HX  - HEAT INDEX



USA.gov is the U.S. government's official web portal to all federal, state and local government web resources and services.